TimeEDT,TemperatureF,Dew PointF,Humidity,Sea Level PressureIn,VisibilityMPH,Wind Direction,Wind SpeedMPH,Gust SpeedMPH,PrecipitationIn,Events,Conditions,WindDirDegrees,DateUTC
12:53 AM,30.9,21.0,67,30.12,10.0,WNW,4.6,-,N/A,,Overcast,300,2013-03-17 04:53:00
1:53 AM,30.9,21.9,69,30.12,10.0,NW,5.8,-,N/A,,Overcast,320,2013-03-17 05:53:00
2:53 AM,30.9,23.0,72,30.13,10.0,Variable,6.9,-,N/A,,Overcast,0,2013-03-17 06:53:00
3:53 AM,30.9,19.0,61,30.14,10.0,NW,8.1,16.1,N/A,,Overcast,320,2013-03-17 07:53:00
4:53 AM,30.9,19.9,64,30.13,10.0,North,8.1,-,N/A,,Overcast,350,2013-03-17 08:53:00
5:00 AM,30.2,19.4,64,30.11,10.0,Variable,6.9,-,N/A,,Overcast,0,2013-03-17 09:00:00
5:29 AM,30.2,19.4,64,30.11,10.0,North,6.9,-,N/A,,Overcast,350,2013-03-17 09:29:00
5:53 AM,28.9,17.1,61,30.14,10.0,North,9.2,17.3,N/A,,Overcast,350,2013-03-17 09:53:00
6:53 AM,28.9,17.1,61,30.16,10.0,Variable,3.5,-,N/A,,Overcast,0,2013-03-17 10:53:00
7:53 AM,28.9,18.0,64,30.19,10.0,ENE,6.9,-,N/A,,Overcast,60,2013-03-17 11:53:00
8:53 AM,28.9,17.1,61,30.22,10.0,ENE,6.9,-,N/A,,Overcast,60,2013-03-17 12:53:00
9:53 AM,30.0,16.0,56,30.23,10.0,NE,9.2,-,N/A,,Partly Cloudy,50,2013-03-17 13:53:00
10:53 AM,30.0,17.1,59,30.24,10.0,East,8.1,-,N/A,,Overcast,80,2013-03-17 14:53:00
11:53 AM,30.9,19.9,64,30.24,10.0,East,11.5,-,N/A,,Mostly Cloudy,90,2013-03-17 15:53:00
12:15 PM,32.0,19.4,60,30.21,10.0,East,11.5,-,N/A,,Overcast,80,2013-03-17 16:15:00
12:28 PM,32.0,19.4,60,30.21,10.0,East,11.5,19.6,N/A,,Overcast,80,2013-03-17 16:28:00
12:53 PM,30.9,19.9,64,30.24,10.0,ENE,10.4,-,N/A,,Overcast,60,2013-03-17 16:53:00
1:16 PM,32.0,19.4,60,30.22,10.0,ESE,10.4,18.4,N/A,,Overcast,120,2013-03-17 17:16:00
1:53 PM,35.1,19.9,54,30.23,10.0,East,10.4,17.3,N/A,,Overcast,90,2013-03-17 17:53:00
2:53 PM,34.0,19.0,54,30.21,10.0,ESE,10.4,17.3,N/A,,Mostly Cloudy,120,2013-03-17 18:53:00
3:53 PM,37.0,21.0,52,30.17,10.0,ESE,10.4,-,N/A,,Scattered Clouds,120,2013-03-17 19:53:00
4:53 PM,37.0,19.9,50,30.15,10.0,East,10.4,-,N/A,,Clear,90,2013-03-17 20:53:00
5:53 PM,36.0,19.9,52,30.15,10.0,East,11.5,-,N/A,,Clear,90,2013-03-17 21:53:00
6:53 PM,34.0,18.0,52,30.14,10.0,East,12.7,-,N/A,,Clear,100,2013-03-17 22:53:00
7:53 PM,32.0,19.0,59,30.15,10.0,East,10.4,-,N/A,,Clear,80,2013-03-17 23:53:00
8:53 PM,30.9,19.0,61,30.15,10.0,East,9.2,-,N/A,,Clear,80,2013-03-18 00:53:00
9:53 PM,30.0,19.0,64,30.13,10.0,ESE,15.0,19.6,N/A,,Clear,110,2013-03-18 01:53:00
10:53 PM,30.0,19.0,64,30.12,10.0,ESE,15.0,20.7,N/A,,Clear,110,2013-03-18 02:53:00
11:53 PM,28.9,18.0,64,30.09,10.0,ESE,18.4,24.2,N/A,,Clear,110,2013-03-18 03:53:00